Home > Weather > Delta > Past weeks

Flag for Canada Past Weather in Delta, British Columbia, Canada — Yesterday and Last 2 Weeks

Now
61 °F

Cloudy.


Feels Like: 61 °F
Forecast: 55 / 67 °F
Wind: 5 mph from Southeast

Location: Vancouver International Airport

Current Time: Jun 25, 2016 at 12:43:33 PM

Latest Report: Jun 25, 2016 at 12:00 PM


Visibility: 15 mi

Pressure: 30.28 "Hg

Humidity: 72%

Dew Point: 52 °F

Location of DeltaLocation

Past Weather in Delta — Graph

°F

Delta Temperature Yesterday

Maximum temperature yesterday: 66 °F (at 4:00 PM)
Minimum temperature yesterday: 54 °F (at 5:00 AM)
Average temperature yesterday: 59 °F

High & Low Weather Summary for the Past Weeks

 TemperatureHumidityPressure
High70 °F (Jun 20, 3:00 PM)100% (Jun 20, 1:00 AM)30.42 "Hg (Jun 20, 1:00 AM)
Low46 °F (Jun 15, 3:00 AM)49% (Jun 10, 2:00 PM)29.85 "Hg (Jun 14, 3:00 AM)
Average58 °F76%30.09 "Hg
* Reported Jun 10 11:00 AM — Jun 25 11:00 AM, Delta, Weather by CustomWeather, © 2016

Note: Actual official high and low records may vary slightly from our data, if they occured in-between our weather recording intervals... More about our weather records

Advertising

Delta Weather History for the Previous 24 Hours

Scroll right to see more
 ConditionsComfort  
Time TempWeatherWind HumidityBarometerVisibility
11:00 AM
Sat, Jun 25
59 °FMore clouds than sun.6 mph77%30.29 "Hg15 mi
10:00 AM59 °FMore clouds than sun.9 mph77%30.28 "Hg15 mi
9:00 AM57 °FMostly cloudy.8 mph82%30.28 "Hg15 mi
8:00 AM57 °FMore clouds than sun.9 mph82%30.27 "Hg15 mi
7:00 AM55 °FMostly cloudy.12 mph88%30.27 "Hg15 mi
6:48 AM55 °FMostly cloudy.10 mph88%30.27 "Hg15 mi
6:00 AM57 °FOvercast.10 mph82%30.27 "Hg15 mi
5:00 AM57 °FMostly cloudy.9 mph82%30.26 "Hg15 mi
4:00 AM57 °FMostly cloudy.12 mph82%30.25 "Hg20 mi
3:00 AM57 °FLight rain. Overcast.12 mph82%30.25 "Hg20 mi
2:00 AM57 °FMostly cloudy.10 mph82%30.25 "Hg20 mi
1:00 AM59 °FOvercast.8 mph77%30.24 "Hg20 mi
12:00 AM59 °FMostly cloudy.8 mph77%30.24 "Hg20 mi
11:00 PM
Fri, Jun 24
61 °FMostly cloudy.8 mph72%30.23 "Hg20 mi
10:00 PM59 °FMore clouds than sun.8 mph82%30.23 "Hg20 mi
9:00 PM61 °FCloudy.7 mph77%30.22 "Hg20 mi
8:00 PM63 °FMostly cloudy.7 mph68%30.21 "Hg20 mi
7:00 PM64 °FPartly sunny.6 mph68%30.20 "Hg20 mi
6:00 PM64 °FCloudy.7 mph64%30.20 "Hg20 mi
5:00 PM64 °FCloudy.7 mph64%30.20 "Hg15 mi
4:00 PM66 °FCloudy.5 mph64%30.19 "Hg20 mi
3:00 PM64 °FCloudy.8 mph64%30.19 "Hg20 mi
2:00 PM64 °FBroken clouds.7 mph64%30.18 "Hg15 mi
1:00 PM63 °FCloudy.3 mph68%30.17 "Hg15 mi
12:00 PM61 °FCloudy.6 mph72%30.16 "Hg15 mi
Weather by CustomWeather, © 2016

See weather overviewHow to use our weather pages